Weather History for Huntsville Madison, AL

Change the Weather History Date:

Thursday, December 20, 2012

  Actual Average (KHSV) Record (KHSV)
Temperature  
Mean Temperature 46 °F 43 °F  
Max Temperature 57 °F 52 °F 74 °F (1978)
Min Temperature 35 °F 34 °F 10 °F (1981)
Degree Days  
Heating Degree Days 19 22  
Month to date heating degree days 403  
Since 1 July heating degree days 930  
Cooling Degree Days 0 0  
Month to date cooling degree days 0  
Year to date cooling degree days 1949  
Moisture  
Dew Point 34 °F    
Average Humidity 61    
Maximum Humidity 88    
Minimum Humidity 41    
Precipitation  
Precipitation 0.49 in 0.18 in 2.18 in (2008)
Month to date precipitation 3.87  
Year to date precipitation 52.44  
Snow  
Snow 0.00 in - - ()
Month to date snowfall  
Since 1 July snowfall  
Snow Depth -    
Sea Level Pressure  
Sea Level Pressure 29.80 in    
Wind  
Wind Speed 14 mph (SW)    
Max Wind Speed 29 mph    
Max Gust Speed 39 mph    
Visibility 9 miles    
Events Rain    
T = Trace of Precipitation, MM = Missing Value Source: NWS Daily Summary

Daily Weather History Graph

Daily Weather History Graph

Search for Another Location

Airport:

Trip Planner

Search our weather history database for the weather conditions in past years. The results will help you decide how hot, cold, wet, or windy it might be!

Date:

Astronomy

Dec. 20, 2012 Rise Set
Actual Time 6:49 AM CST 4:38 PM CST
Civil Twilight 6:21 AM CST 5:06 PM CST
Nautical Twilight 5:49 AM CST 5:38 PM CST
Astronomical Twilight 5:19 AM CST 6:09 PM CST
Moon 11:45 AM CST (12/20) No Moon Set
Length of Visible Light 10h 45m
Length of Day
9h 48m
First Quarter, 55% of the Moon is Illuminated
Dec 20
First Quarter
Dec 28
Full
Jan 4
Last Quarter
Jan 11
New
Jan 18
First Quarter

Hourly Weather History & Observations

Time (CST) Temp. Windchill Dew Point Humidity Pressure Visibility Wind Dir Wind Speed Gust Speed Precip Events Conditions
12:15 AM 57.2 °F - 33.8 °F 41% 29.91 in 10.0 mi SE 10.4 mph 16.1 mph N/A   Clear
12:35 AM 55.4 °F - 33.8 °F 44% 29.88 in 10.0 mi SE 10.4 mph - N/A   Clear
12:55 AM 57.2 °F - 33.8 °F 41% 29.88 in 10.0 mi SE 10.4 mph 17.3 mph N/A   Scattered Clouds
1:15 AM 57.2 °F - 33.8 °F 41% 29.87 in 10.0 mi SSE 11.5 mph 16.1 mph N/A   Scattered Clouds
1:35 AM 57.2 °F - 33.8 °F 41% 29.86 in 10.0 mi SSE 11.5 mph 18.4 mph N/A   Clear
1:55 AM 57.2 °F - 33.8 °F 41% 29.85 in 10.0 mi SSE 11.5 mph 19.6 mph N/A   Scattered Clouds
2:15 AM 57.2 °F - 33.8 °F 41% 29.84 in 10.0 mi SE 12.7 mph 19.6 mph N/A   Mostly Cloudy
2:35 AM 57.2 °F - 35.6 °F 44% 29.81 in 10.0 mi SE 11.5 mph 18.4 mph N/A Rain Light Rain
2:55 AM 57.2 °F - 37.4 °F 48% 29.81 in 10.0 mi SSE 12.7 mph 20.7 mph N/A   Overcast
3:15 AM 53.6 °F - 41.0 °F 62% 29.83 in 5.0 mi SSE 13.8 mph 21.9 mph 0.04 in Rain Heavy Rain
3:35 AM 51.8 °F - 44.6 °F 76% 29.80 in 5.0 mi SE 11.5 mph 17.3 mph 0.10 in Rain Rain
3:55 AM 51.8 °F - 44.6 °F 76% 29.78 in 7.0 mi SE 10.4 mph 17.3 mph 0.13 in Rain Light Rain
4:15 AM 51.8 °F - 44.6 °F 76% 29.78 in 7.0 mi Calm Calm - 0.01 in Rain Rain
4:35 AM 51.8 °F - 44.6 °F 76% 29.77 in 7.0 mi SSE 10.4 mph - 0.03 in Rain Rain
4:55 AM 51.8 °F - 46.4 °F 82% 29.75 in 7.0 mi SSE 17.3 mph 25.3 mph 0.06 in Rain Heavy Rain
5:15 AM 51.8 °F - 46.4 °F 82% 29.73 in 7.0 mi SSE 15.0 mph 24.2 mph 0.03 in Rain Light Rain
5:35 AM 51.8 °F - 46.4 °F 82% 29.72 in 4.0 mi SSE 17.3 mph 25.3 mph 0.05 in Rain Heavy Rain
5:55 AM 51.8 °F - 46.4 °F 82% 29.73 in 7.0 mi SSE 16.1 mph 23.0 mph 0.08 in Rain Rain
6:15 AM 51.8 °F - 46.4 °F 82% 29.72 in 10.0 mi SSE 16.1 mph 27.6 mph 0.02 in Rain Light Rain
6:35 AM 51.8 °F - 46.4 °F 82% 29.71 in 10.0 mi SSE 13.8 mph 25.3 mph 0.03 in   Overcast
6:55 AM 51.8 °F - 46.4 °F 82% 29.70 in 10.0 mi SSE 17.3 mph 25.3 mph 0.04 in   Overcast
7:15 AM 51.8 °F - 46.4 °F 82% 29.68 in 10.0 mi SSE 12.7 mph 23.0 mph N/A   Light Drizzle
7:35 AM 51.8 °F - 46.4 °F 82% 29.67 in 10.0 mi SSE 13.8 mph 25.3 mph N/A   Overcast
7:55 AM 51.8 °F - 48.2 °F 88% 29.66 in 10.0 mi SSE 15.0 mph 25.3 mph N/A Rain Light Rain
8:15 AM 53.6 °F - 50.0 °F 88% 29.65 in 10.0 mi SSE 15.0 mph 21.9 mph N/A Rain Light Rain
8:35 AM 53.6 °F - 50.0 °F 88% 29.63 in 7.0 mi SE 11.5 mph 19.6 mph N/A Rain Rain
8:55 AM 53.6 °F - 50.0 °F 88% 29.62 in 2.0 mi SSE 15.0 mph 23.0 mph 0.01 in Rain Heavy Rain
9:15 AM 55.4 °F - 51.8 °F 88% 29.71 in 3.0 mi WSW 27.6 mph 35.7 mph 0.02 in Rain Rain
9:35 AM 51.8 °F - 46.4 °F 82% 29.70 in 2.5 mi SSW 16.1 mph 26.5 mph 0.04 in Rain Heavy Rain
9:55 AM 50.0 °F - 44.6 °F 82% 29.71 in 7.0 mi South 10.4 mph - 0.07 in Rain Light Rain
10:15 AM 50.0 °F - 44.6 °F 82% 29.68 in 7.0 mi South 6.9 mph - N/A Rain Light Rain
10:35 AM 50.0 °F - 44.6 °F 82% 29.67 in 10.0 mi SSE 6.9 mph - 0.01 in   Overcast
10:55 AM 50.0 °F - 44.6 °F 82% 29.66 in 10.0 mi South 8.1 mph - 0.02 in   Overcast
11:15 AM 51.8 °F - 44.6 °F 76% 29.65 in 10.0 mi South 11.5 mph - N/A   Overcast
11:35 AM 51.8 °F - 44.6 °F 76% 29.65 in 10.0 mi South 13.8 mph - 0.01 in   Overcast
11:55 AM 51.8 °F - 44.6 °F 76% 29.64 in 10.0 mi SW 12.7 mph 17.3 mph 0.01 in   Overcast
12:15 PM 51.8 °F - 42.8 °F 71% 29.64 in 10.0 mi SW 16.1 mph 24.2 mph 0.01 in   Overcast
12:35 PM 53.6 °F - 41.0 °F 62% 29.65 in 10.0 mi WSW 20.7 mph 31.1 mph 0.01 in   Mostly Cloudy
12:55 PM 53.6 °F - 41.0 °F 62% 29.66 in 10.0 mi WSW 19.6 mph 28.8 mph 0.02 in   Mostly Cloudy
1:15 PM 51.8 °F - 35.6 °F 54% 29.68 in 10.0 mi West 25.3 mph 36.8 mph N/A   Overcast
1:35 PM 51.8 °F - 32.0 °F 47% 29.69 in 10.0 mi West 23.0 mph 34.5 mph 0.01 in   Mostly Cloudy
1:55 PM 48.2 °F - 32.0 °F 54% 29.71 in 10.0 mi West 20.7 mph 33.4 mph 0.02 in   Overcast
2:15 PM 46.4 °F 37.4 °F 32.0 °F 57% 29.74 in 10.0 mi West 28.8 mph 38.0 mph N/A   Overcast
2:35 PM 44.6 °F 36.4 °F 28.4 °F 53% 29.77 in 10.0 mi West 20.7 mph 39.1 mph 0.01 in   Overcast
2:55 PM 42.8 °F 35.4 °F 28.4 °F 57% 29.78 in 10.0 mi West 15.0 mph 26.5 mph 0.01 in   Overcast
3:15 PM 42.8 °F 34.3 °F 26.6 °F 53% 29.80 in 10.0 mi West 19.6 mph 31.1 mph 0.01 in   Overcast
3:35 PM 42.8 °F 34.0 °F 26.6 °F 53% 29.81 in 10.0 mi West 20.7 mph 28.8 mph 0.02 in   Overcast
3:55 PM 42.8 °F 35.4 °F 26.6 °F 53% 29.81 in 10.0 mi WSW 15.0 mph 26.5 mph 0.02 in   Overcast
4:15 PM 42.8 °F 35.8 °F 26.6 °F 53% 29.82 in 10.0 mi West 13.8 mph 24.2 mph N/A   Overcast
4:35 PM 42.8 °F 37.0 °F 26.6 °F 53% 29.83 in 10.0 mi West 10.4 mph 20.7 mph N/A   Overcast
4:55 PM 42.8 °F 36.6 °F 26.6 °F 53% 29.84 in 10.0 mi West 11.5 mph 24.2 mph N/A   Overcast
5:15 PM 42.8 °F 34.3 °F 24.8 °F 49% 29.86 in 10.0 mi West 19.6 mph 26.5 mph N/A   Overcast
5:35 PM 42.8 °F 33.8 °F 23.0 °F 46% 29.88 in 10.0 mi WNW 21.9 mph 34.5 mph N/A   Overcast
5:55 PM 42.8 °F 33.8 °F 23.0 °F 46% 29.89 in 10.0 mi WNW 21.9 mph 29.9 mph N/A   Overcast
6:15 PM 41.0 °F 31.9 °F 23.0 °F 49% 29.90 in 10.0 mi West 19.6 mph 27.6 mph N/A   Overcast
6:35 PM 41.0 °F 32.8 °F 23.0 °F 49% 29.91 in 10.0 mi West 16.1 mph 24.2 mph N/A   Overcast
6:55 PM 41.0 °F 33.9 °F 23.0 °F 49% 29.91 in 10.0 mi West 12.7 mph 26.5 mph N/A   Overcast
7:15 PM 41.0 °F 32.2 °F 23.0 °F 49% 29.92 in 10.0 mi West 18.4 mph 31.1 mph N/A   Overcast
7:35 PM 41.0 °F 33.5 °F 23.0 °F 49% 29.92 in 10.0 mi West 13.8 mph 26.5 mph N/A   Overcast
7:55 PM 41.0 °F 33.9 °F 23.0 °F 49% 29.92 in 10.0 mi West 12.7 mph 19.6 mph N/A   Overcast
8:15 PM 41.0 °F 31.9 °F 23.0 °F 49% 29.93 in 10.0 mi West 19.6 mph 27.6 mph N/A   Overcast
8:35 PM 41.0 °F 32.2 °F 23.0 °F 49% 29.94 in 10.0 mi WNW 18.4 mph 34.5 mph N/A   Overcast
8:55 PM 41.0 °F 32.2 °F 23.0 °F 49% 29.94 in 10.0 mi WNW 18.4 mph 31.1 mph N/A   Overcast
9:15 PM 41.0 °F 32.8 °F 23.0 °F 49% 29.95 in 10.0 mi WNW 16.1 mph 26.5 mph N/A   Overcast
9:35 PM 39.2 °F 29.6 °F 21.2 °F 49% 29.97 in 10.0 mi West 19.6 mph 29.9 mph N/A   Overcast
9:55 PM 37.4 °F 26.9 °F 19.4 °F 48% 29.98 in 10.0 mi WNW 20.7 mph 28.8 mph N/A   Overcast
10:15 PM 37.4 °F 26.6 °F 17.6 °F 45% 29.99 in 10.0 mi West 21.9 mph 28.8 mph N/A   Mostly Cloudy
10:35 PM 35.6 °F 28.0 °F 17.6 °F 48% 29.99 in 10.0 mi West 10.4 mph 23.0 mph N/A   Scattered Clouds
10:55 PM 35.6 °F 27.5 °F 17.6 °F 48% 29.99 in 10.0 mi West 11.5 mph 19.6 mph N/A   Clear
11:15 PM 35.6 °F 28.0 °F 17.6 °F 48% 29.99 in 10.0 mi West 10.4 mph - N/A   Clear
11:35 PM 35.6 °F 28.0 °F 17.6 °F 48% 29.99 in 10.0 mi West 10.4 mph 18.4 mph N/A   Scattered Clouds
11:55 PM 35.6 °F 27.5 °F 17.6 °F 48% 29.99 in 10.0 mi West 11.5 mph 20.7 mph N/A   Scattered Clouds